Starlink 11539

operational
NORAD ID: 62987 Int'l Des: 2025-031 Owner: SPXS Country: US Constellation: starlink
LEOCIRCULAR

About Starlink 11539

Description loading...

Live Position

Loading 3D Globe...

Upcoming Passes

Altitude History

Altitude vs Time

uPlot chart will show altitude changes over time

Two-Line Element Set

1 62987U 25031G 25304.68416860 .00253604 00000-0 19181-2 0 9998
2 62987 42.9995 59.0221 0002670 266.0988 93.9574 15.70864728 42455
Epoch: Oct 31, 2025 • Age: 26 hours

Current Status

Altitude 363.4 km
Velocity 7.69 km/s
Sub-Earth Point -35.04°S, 51.16°E
Launch Date Feb 11, 2025
Age 0.7 years
Type internet

Technical Details

Classification Payload
Mass 960.00 kg
Dry Mass 910.00 kg
Total Mass 960.00 kg
Length 0.30 m
Diameter 4.10 m
Span 29.00 m
Shape Box + pan
Manufacturer SPXS
Bus Type Starlink V2MD
Phase Status In Orbit
Owner/State SPXS/US

Large Constellations

Loading constellations...